Flag for Kazakhstan Weather past 2 weeks in Aqtobe, Kazakhstan

Now
59 °F

Clear.


Feels Like: 55 °F
Forecast: 37 / 52 °F
Wind: 20 mph from Northwest

Location: Aktjubinsk


UV Index: 3 (Moderate)

Visibility: 10 mi


Pressure: 30.07 "Hg

Humidity: 42%

Dew point: 36 °F

Location of AqtobeLocation

Historic Weather in Aqtobe

°F

Aqtobe temperature yesterday

Maximum temperature yesterday: 68 °F (at 4:30 PM)
Minimum temperature yesterday: 37 °F (at 6:00 AM)
Average temperature yesterday: 53 °F

Past Weeks' High & Low Weather Summary

 TemperatureHumidityPressure
High70 °F (Apr 18, 3:00 PM)100% (Apr 9, 3:00 AM)30.60 "Hg (Apr 9, 3:00 AM)
Low19 °F (Apr 12, 4:00 AM)20% (Apr 16, 4:30 PM)29.59 "Hg (Apr 9, 3:30 PM)
Average43 °F58%30.18 "Hg
* Reported Apr 6 8:00 PM — Apr 21 8:30 PM, Aqtobe, Weather by CustomWeather, © 2014

Note: Actual official high and low records may vary slightly from our data, if they occured in-between our weather recording intervals... More about our weather records

Advertising

Historic Weather Conditions — Data for Previous 24 hours

 ConditionsComfort  
Time TempWeatherWind HumidityBarometerVisibility
8:30 PM
Apr 21
61 °FClear.17 mph36%30.04 "Hg10 mi
8:00 PM63 °FSunny.17 mph32%30.04 "Hg10 mi
7:30 PM64 °FSunny.17 mph30%30.04 "Hg10 mi
7:00 PM66 °FSunny.20 mph26%30.01 "Hg10 mi
6:30 PM66 °FSunny.20 mph22%30.01 "Hg10 mi
6:00 PM68 °FSunny.22 mph20%30.01 "Hg10 mi
5:30 PM68 °FSunny.20 mph23%30.01 "Hg10 mi
5:00 PM68 °FSunny.20 mph21%30.01 "Hg10 mi
4:30 PM68 °FSunny.20 mph21%30.01 "Hg10 mi
4:00 PM68 °FPassing clouds.17 mph21%30.01 "HgN/A
3:30 PM70 °FSunny.22 mph20%30.04 "Hg10 mi
3:00 PM68 °FSunny.22 mph21%30.04 "Hg10 mi
2:30 PM68 °FPassing clouds.17 mph23%30.04 "HgN/A
2:00 PM68 °FPassing clouds.15 mph24%30.04 "HgN/A
1:30 PM66 °FSunny.15 mph26%30.07 "Hg10 mi
1:00 PM66 °FPassing clouds.13 mph24%30.07 "HgN/A
12:30 PM64 °FPassing clouds.13 mph26%30.07 "HgN/A
12:00 PM64 °FPassing clouds.13 mph26%30.07 "HgN/A
11:30 AM63 °FSunny.10 mph27%30.09 "Hg10 mi
11:00 AM61 °FPassing clouds.8 mph31%30.09 "HgN/A
10:30 AM61 °FSunny.8 mph31%30.09 "Hg10 mi
10:00 AM57 °FClear.3 mph36%30.09 "Hg6 mi
9:30 AM54 °FClear.6 mph47%30.09 "HgN/A
9:00 AM52 °FClear.3 mph50%30.09 "HgN/A
8:30 AM48 °FClear.1 mph58%30.09 "HgN/A
7:30 AM41 °FClear.1 mph81%30.09 "Hg6 mi
7:00 AM37 °FClear.1 mph81%30.09 "HgN/A
6:30 AM36 °FSunny.3 mph87%30.09 "Hg10 mi
6:00 AM36 °FPassing clouds.3 mph87%30.09 "HgN/A
5:30 AM36 °FClear.3 mph93%30.09 "Hg10 mi
5:00 AM36 °FPassing clouds.3 mph93%30.09 "HgN/A
4:30 AM37 °FClear.3 mph93%30.09 "Hg10 mi
4:00 AM37 °FClear.3 mph93%30.09 "Hg10 mi
3:30 AM39 °FClear.1 mph87%30.09 "Hg10 mi
3:00 AM41 °FClear.3 mph76%30.09 "Hg10 mi
2:00 AM41 °FClear.3 mph76%30.09 "Hg10 mi
1:30 AM43 °FClear.1 mph71%30.09 "Hg10 mi
1:00 AM45 °FClear.1 mph66%30.09 "Hg10 mi
12:30 AM46 °FClear.1 mph66%30.09 "HgN/A
12:00 AM45 °FClear.1 mph71%30.09 "HgN/A
11:30 PM
Apr 20
46 °FClear.3 mph66%30.09 "HgN/A
11:00 PM46 °FClear.3 mph66%30.09 "Hg10 mi
10:30 PM48 °FClear.3 mph58%30.09 "Hg10 mi
10:00 PM52 °FClear.1 mph50%30.09 "Hg10 mi
9:30 PM57 °FClear.1 mph39%30.09 "Hg10 mi
9:00 PM54 °FClear.1 mph47%30.09 "Hg10 mi
Weather by CustomWeather, © 2014

See weather overview